| time (UTC) | temp C | wind direction | speed KPH | gust KPH | rain 1hr cm | rain 24hr cm | rain mn cm | humidity % | barometer mb |
| 20260507000036 | 4 | 85 | 0.0 | 0.0 | 0.00 | 0.00 | 0.00 | 97 | 1009.2 |
| 20260506234547 | 4 | 85 | 0.0 | 1.6 | 0.00 | 0.00 | 0.00 | 97 | 1008.8 |
| 20260506233036 | 4 | 86 | 0.0 | 6.4 | 0.00 | 0.00 | 0.00 | 97 | 1008.0 |
| 20260506231536 | 4 | 75 | 0.0 | 4.8 | 0.00 | 0.00 | 0.00 | 97 | 1008.2 |
| 20260506230031 | 4 | 347 | 0.0 | 8.0 | 0.00 | 0.00 | 0.00 | 97 | 1008.0 |
| 20260506224531 | 4 | 9 | 0.0 | 4.8 | 0.00 | 0.00 | 0.00 | 97 | 1007.8 |
| 20260506223031 | 4 | 9 | 0.0 | 4.8 | 0.00 | 0.00 | 0.00 | 97 | 1007.6 |
| 20260506221526 | 4 | 304 | 0.0 | 4.8 | 0.00 | 0.00 | 0.00 | 97 | 1008.0 |
| 20260506220033 | 4 | 91 | 0.0 | 4.8 | 0.00 | 0.00 | 0.00 | 97 | 1007.7 |
| 20260506214524 | 5 | 319 | 1.6 | 11.3 | 0.00 | 0.00 | 0.00 | 97 | 1007.6 |
| 20260506213023 | 5 | 59 | 1.6 | 4.8 | 0.00 | 0.00 | 0.00 | 97 | 1007.5 |
| 20260506211557 | 5 | 313 | 0.0 | 6.4 | 0.00 | 0.00 | 0.00 | 97 | 1007.0 |
| 20260506210052 | 5 | 340 | 1.6 | 4.8 | 0.00 | 0.00 | 0.00 | 97 | 1007.1 |
| 20260506204550 | 5 | 245 | 0.0 | 4.8 | 0.00 | 0.00 | 0.00 | 97 | 1007.2 |
| 20260506203057 | 5 | 228 | 0.0 | 1.6 | 0.00 | 0.00 | 0.00 | 97 | 1007.2 |
| 20260506201549 | 5 | 229 | 0.0 | 4.8 | 0.00 | 0.00 | 0.00 | 97 | 1007.1 |
| 20260506200049 | 6 | 229 | 0.0 | 3.2 | 0.00 | 0.00 | 0.00 | 97 | 1006.9 |
| 20260506194528 | 5 | 229 | 0.0 | 1.6 | 0.00 | 0.00 | 0.00 | 98 | 1006.9 |
| 20260506193018 | 5 | 229 | 0.0 | 3.2 | 0.00 | 0.00 | 0.00 | 97 | 1006.9 |
| 20260506191548 | 5 | 229 | 0.0 | 3.2 | 0.00 | 0.00 | 0.00 | 97 | 1006.9 |
| 20260506190046 | 5 | 229 | 0.0 | 4.8 | 0.00 | 0.00 | 0.00 | 97 | 1007.1 |
| 20260506184516 | 5 | 278 | 0.0 | 4.8 | 0.00 | 0.00 | 0.00 | 97 | 1006.9 |
| 20260506183018 | 5 | 57 | 0.0 | 6.4 | 0.00 | 0.00 | 0.00 | 97 | 1006.9 |
| 20260506181559 | 5 | 39 | 0.0 | 9.7 | 0.00 | 0.00 | 0.00 | 97 | 1007.0 |
| 20260506180044 | 5 | 54 | 1.6 | 3.2 | 0.00 | 0.00 | 0.00 | 97 | 1007.2 |
| 20260506174541 | 5 | 61 | 0.0 | 3.2 | 0.00 | 0.00 | 0.00 | 97 | 1007.5 |
| 20260506173059 | 5 | 65 | 0.0 | 6.4 | 0.00 | 0.00 | 0.00 | 97 | 1007.8 |
| 20260506171547 | 5 | 71 | 1.6 | 6.4 | 0.00 | 0.00 | 0.00 | 97 | 1007.6 |
| 20260506170042 | 5 | 123 | 0.0 | 6.4 | 0.00 | 0.00 | 0.00 | 97 | 1007.2 |
| 20260506164513 | 5 | 77 | 1.6 | 6.4 | 0.00 | 0.00 | 0.00 | 97 | 1007.5 |
| 20260506163008 | 5 | 100 | 3.2 | 12.9 | 0.00 | 0.00 | 0.00 | 97 | 1007.2 |
| 20260506161506 | 5 | 185 | 1.6 | 3.2 | 0.00 | 0.00 | 0.00 | 97 | 1007.6 |
| 20260506160006 | 5 | 188 | 1.6 | 4.8 | 0.00 | 0.00 | 0.00 | 97 | 1008.0 |
| 20260506154514 | 5 | 183 | 0.0 | 4.8 | 0.00 | 0.00 | 0.00 | 97 | 1008.2 |
| 20260506153002 | 5 | 129 | 1.6 | 3.2 | 0.00 | 0.00 | 0.00 | 97 | 1007.8 |
| 20260506151600 | 5 | 128 | 0.0 | 3.2 | 0.00 | 0.00 | 0.00 | 97 | 1007.8 |
| 20260506150105 | 6 | 127 | 0.0 | 4.8 | 0.00 | 0.00 | 0.00 | 97 | 1007.7 |
| 20260506144602 | 6 | 66 | 0.0 | 3.2 | 0.00 | 0.00 | 0.00 | 97 | 1007.5 |
| 20260506143059 | 5 | 66 | 0.0 | 3.2 | 0.00 | 0.00 | 0.00 | 97 | 1007.7 |
| 20260506141555 | 5 | 66 | 0.0 | 9.7 | 0.00 | 0.00 | 0.00 | 97 | 1007.8 |
| 20260506140055 | 5 | 355 | 0.0 | 4.8 | 0.00 | 0.00 | 0.00 | 97 | 1008.1 |
| 20260506134553 | 5 | 65 | 1.6 | 4.8 | 0.00 | 0.00 | 0.00 | 97 | 1007.8 |
| 20260506133101 | 6 | 163 | 1.6 | 4.8 | 0.00 | 0.00 | 0.00 | 97 | 1007.3 |
| 20260506131558 | 5 | 235 | 1.6 | 14.5 | 0.00 | 0.00 | 0.00 | 97 | 1007.6 |
| 20260506130053 | 6 | 298 | 4.8 | 11.3 | 0.00 | 0.00 | 0.00 | 97 | 1008.1 |
| 20260506124546 | 6 | 46 | 9.7 | 17.7 | 0.00 | 0.00 | 0.00 | 97 | 1007.0 |
| 20260506123043 | 6 | 49 | 1.6 | 4.8 | 0.00 | 0.00 | 0.00 | 97 | 1007.8 |
| 20260506121544 | 6 | 38 | 3.2 | 12.9 | 0.00 | 0.00 | 0.00 | 97 | 1008.2 |
| 20260506120030 | 6 | 122 | 3.2 | 11.3 | 0.00 | 0.00 | 0.00 | 97 | 1008.1 |
| 20260506114528 | 6 | 69 | 0.0 | 9.7 | 0.00 | 0.00 | 0.00 | 97 | 1008.2 |
| 20260506113028 | 6 | 103 | 3.2 | 16.1 | 0.00 | 0.00 | 0.00 | 96 | 1008.2 |
| 20260506110025 | 7 | 95 | 1.6 | 6.4 | 0.00 | 0.00 | 0.00 | 97 | 1008.0 |
| 20260506104525 | 7 | 88 | 0.0 | 3.2 | 0.00 | 0.00 | 0.00 | 97 | 1007.9 |
| 20260506103035 | 7 | 98 | 1.6 | 4.8 | 0.00 | 0.00 | 0.00 | 97 | 1007.6 |
| 20260506100027 | 7 | 21 | 0.0 | 4.8 | 0.00 | 0.00 | 0.00 | 97 | 1008.0 |
| 20260506094523 | 7 | 340 | 1.6 | 4.8 | 0.00 | 0.00 | 0.00 | 97 | 1009.4 |
| 20260506093018 | 8 | 340 | 0.0 | 11.3 | 0.00 | 0.00 | 0.00 | 97 | 1008.5 |
| 20260506090023 | 8 | 66 | 6.4 | 17.7 | 0.00 | 0.00 | 0.00 | 97 | 1007.9 |
| 20260506084523 | 8 | 59 | 0.0 | 4.8 | 0.00 | 0.00 | 0.00 | 97 | 1008.2 |
| 20260506083020 | 8 | 87 | 3.2 | 4.8 | 0.00 | 0.00 | 0.00 | 97 | 1008.7 |
| 20260506081516 | 9 | 50 | 0.0 | 3.2 | 0.00 | 0.00 | 0.00 | 97 | 1008.3 |
| 20260506073010 | 10 | 190 | 1.6 | 3.2 | 0.00 | 0.00 | 0.00 | 97 | 1008.6 |
| 20260506071512 | 10 | 190 | 1.6 | 3.2 | 0.00 | 0.00 | 0.00 | 97 | 1008.2 |
| 20260506061501 | 10 | 191 | 0.0 | 4.8 | 0.00 | 0.00 | 0.00 | 96 | 1008.6 |
| 20260506044518 | 10 | 142 | 0.0 | 4.8 | 0.00 | 0.00 | 0.00 | 97 | 1008.4 |
| 20260506043046 | 10 | 144 | 0.0 | 4.8 | 0.00 | 0.00 | 0.00 | 96 | 1008.7 |
| 20260506041549 | 10 | 146 | 0.0 | 3.2 | 0.00 | 0.00 | 0.00 | 96 | 1008.6 |
| 20260506040042 | 10 | 144 | 0.0 | 3.2 | 0.00 | 0.00 | 0.00 | 96 | 1009.1 |
| 20260506034541 | 11 | 145 | 0.0 | 3.2 | 0.00 | 0.00 | 0.00 | 95 | 1008.9 |
| 20260506033038 | 11 | 144 | 1.6 | 9.7 | 0.00 | 0.00 | 0.00 | 94 | 1008.6 |
| 20260506031534 | 12 | 286 | 3.2 | 8.0 | 0.00 | 0.00 | 0.00 | 94 | 1008.4 |
| 20260506030002 | 12 | 115 | 0.0 | 4.8 | 0.00 | 0.00 | 0.00 | 94 | 1008.0 |
| 20260506024505 | 12 | 209 | 1.6 | 4.8 | 0.00 | 0.00 | 0.00 | 92 | 1007.7 |
| 20260506023031 | 13 | 261 | 1.6 | 3.2 | 0.00 | 0.00 | 0.00 | 88 | 1007.9 |
| 20260506021529 | 14 | 195 | 0.0 | 6.4 | 0.00 | 0.00 | 0.00 | 81 | 1007.8 |
| 20260506020026 | 14 | 136 | 3.2 | 8.0 | 0.00 | 0.00 | 0.00 | 80 | 1007.6 |
| 20260506014529 | 14 | 155 | 0.0 | 8.0 | 0.00 | 0.00 | 0.00 | 80 | 1007.8 |
| 20260506013023 | 14 | 200 | 1.6 | 9.7 | 0.00 | 0.00 | 0.00 | 81 | 1007.5 |
| 20260506011523 | 14 | 132 | 6.4 | 12.9 | 0.00 | 0.00 | 0.00 | 81 | 1006.7 |
| 20260506010019 | 14 | 167 | 3.2 | 16.1 | 0.00 | 0.00 | 0.00 | 81 | 1006.9 |
| 20260506004519 | 13 | 184 | 4.8 | 14.5 | 0.00 | 0.00 | 0.00 | 82 | 1006.5 |
| 20260506003017 | 13 | 110 | 3.2 | 11.3 | 0.00 | 0.00 | 0.00 | 83 | 1006.5 |
| 20260506001518 | 13 | 202 | 3.2 | 12.9 | 0.00 | 0.00 | 0.00 | 84 | 1006.5 |